Showing default

CARTOSAT 2D, 41948

Orbit data source: Space-Track

CARTOSAT 2D, 41948 is a payload satellite owned by ISRO (IN) in SSO that was launched on Wed, 15 Feb 2017 UTC via a PSLV-XL launch vehicle from the Sirharikota (SRI). Payload-class satellites include a variety of spacecraft equipped with specific instruments for various scientific and technological missions. These include communications satellites like Starlink; space stations such as the ISS; scientific satellites like the Hubble; Earth observation satellites from companies like Planet Labs, Umbra, and HawkEye 360; GPS; miniature CubeSats for education and research; and military/defense satellites.

Loading next visibility...
Identifier
41948, 2017-008A
Orbit
SSO
Country
Flag of ININ / IND
Related business
Manufacturer
ISRO
Mission
Operational Defense Imaging
Bus & Motor
IRS-2, AOCS
Mass
714 kg wet, 639 kg dry
Launch date (UTC)
2017-02-15 (9 years ago)
Launch vehicle
PSLV-XL
Launch site
Sirharikota (SRI)
Object type
Payload
Rocket body
Debris
Shape & HBR
Hex Cyl + 2 Pan, 4.0 m
Radar Cross Section
9.780 m², Large (>1 m²)

Expand to show TLE details & history
Last TLE update: 5 hours ago

TLE from 5 hours ago
0 CARTOSAT 2D
1 41948U 17008A   26036.82693598  .00011603  00000-0  55409-3 0  9996
2 41948  97.4296  98.4594 0005283 349.9691  10.1437 15.19189496497631
Epoch: 2026-02-05T19:50Z
TLE epoch observation values (Epoch: 2026-02-05T19:50:47.268Z)
Latitude
-0.00007°
Longitude
24.78887°
Altitude
507.795 km
Speed
7.612 km/s
True Right ascension
06h 33m 50s
True Declination
0° 00' 00"
Sunlit
Object was in full shadow at epoch
Visualization orbit readout
Latitude
Unknown
Longitude
Unknown
Altitude
Unknown
Speed
Unknown
Apparent Right ascension
Unknown
Apparent Declination
Unknown
Sunlit
N/A
Visualization observer readout
Local Sidereal Time
02:50:01
Azimuth
Unknown
Elevation
Unknown
Doppler factor
Unknown
Orbital elements
Apogee altitude
508.893 km
Perigee altitude
501.62 km
Semi-major axis
6,883.394 km
Eccentricity
0.00053
Inclination
97.4296°
RAAN
98.4594°
Arg. of periapsis
349.9691°
True anomaly
10.15437°
Mean anomaly
10.1437°
Eccentric anomaly
10.14903°
Mean motion
3.80049 °/min
Orbital period
94.72 mins
BSTAR
0.00055409
Loading maneuver chart data...
Computing Atmospheric mass density...

Documentation

Showing up to 5 results
|